EW9774 Weather Reports


Display with metric or nautical units.
time (UTC)temp
F
wind
direction
speed
MPH
gust
MPH
rain 1hr
in
rain 24hr
in
rain mn
in
humidity
%
barometer
mb
20260903074530 51 183 3.0 6.0 0.00 0.40 0.00 97 1011.5
20260903073030 51 198 1.0 4.0 0.00 0.40 0.00 97 1011.4
20260903071529 52 171 1.0 4.0 0.00 0.40 0.00 97 1011.3
20260903070029 52 233 1.0 5.0 0.00 0.40 0.00 97 1011.4
20260903064534 53 185 2.0 6.0 0.00 0.40 0.40 97 1011.4
20260903063029 53 38 2.0 5.0 0.00 0.40 0.40 97 1011.5
20260903060043 53 186 2.0 4.0 0.00 0.40 0.40 96 1011.4
20260903054531 53 180 2.0 7.0 0.00 0.40 0.40 96 1011.4
20260903051532 54 168 1.0 4.0 0.00 0.40 0.40 96 1011.2
20260903044531 54 184 1.0 4.0 0.00 0.40 0.40 96 1010.9
20260903043029 54 180 1.0 3.0 0.01 0.40 0.40 96 1010.8
20260903041531 55 182 2.0 4.0 0.01 0.40 0.40 95 1010.5
20260903034531 57 180 0.0 4.0 0.01 0.40 0.39 95 1010.1
20260903033107 57 180 2.0 4.0 0.01 0.39 0.39 95 1010.1
20260903030032 58 136 0.0 0.0 0.15 0.39 0.39 95 1009.9
20260903024530 58 133 0.0 3.0 0.18 0.39 0.38 95 1009.9
20260903023029 58 135 1.0 4.0 0.18 0.38 0.32 94 1009.8
20260903021531 58 157 0.0 3.0 0.12 0.32 0.24 94 1009.7
20260903014531 58 90 0.0 0.0 0.02 0.21 0.20 94 1009.2
20260903011532 59 90 0.0 0.0 0.04 0.20 0.20 93 1009.2
20260903010030 59 347 0.0 3.0 0.06 0.20 0.19 93 1009.2
20260903004536 59 351 0.0 2.0 0.06 0.19 0.17 93 1009.4
20260903003032 59 360 0.0 2.0 0.04 0.17 0.16 92 1009.4
20260903001530 59 5 0.0 3.0 0.04 0.16 0.14 92 1009.4
20260903000105 59 32 0.0 2.0 0.03 0.14 0.13 92 1009.3
20260902234530 59 36 2.0 4.0 0.02 0.13 0.13 91 1009.3
20260902233031 59 22 1.0 4.0 0.02 0.13 0.12 91 1009.4
20260902231529 60 44 1.0 4.0 0.02 0.12 0.11 92 1009.5
20260902224607 59 357 0.0 4.0 0.03 0.11 0.11 92 1009.4
20260902220030 60 212 0.0 2.0 0.04 0.10 0.08 91 1009.2
20260902211530 60 17 0.0 3.0 0.03 0.06 0.06 91 1009.2
20260902210108 60 86 1.0 5.0 0.04 0.06 0.05 90 1009.3
20260902204532 60 82 3.0 6.0 0.03 0.05 0.04 89 1009.2
20260902203105 60 79 1.0 4.0 0.02 0.04 0.03 88 1009.4
20260902201530 61 44 1.0 4.0 0.03 0.03 0.02 87 1009.4
20260902200031 61 49 2.0 4.0 0.02 0.02 0.02 84 1009.3
20260902194530 61 180 0.0 1.0 0.02 0.02 0.02 83 1009.2
20260902193032 62 194 0.0 3.0 0.02 0.02 0.00 81 1009.3
20260902190029 63 180 1.0 3.0 0.00 0.00 0.00 79 1009.0
20260902184530 63 195 2.0 4.0 0.00 0.00 0.00 78 1009.1
20260902183107 64 337 0.0 2.0 0.00 0.00 0.00 76 1009.0
20260902181609 63 345 0.0 2.0 0.00 0.00 0.00 72 1009.0
20260902180148 63 7 2.0 5.0 0.00 0.00 0.00 70 1009.1
20260902174530 64 1 2.0 5.0 0.00 0.00 0.00 69 1009.1
20260902173031 64 258 1.0 3.0 0.00 0.00 0.00 72 1009.2
20260902171539 63 182 2.0 6.0 0.00 0.00 0.00 71 1009.4
20260902170031 63 305 0.0 3.0 0.00 0.00 0.00 71 1009.6
20260902164529 62 59 0.0 2.0 0.00 0.00 0.00 73 1009.8
20260902163042 62 153 0.0 3.0 0.00 0.00 0.00 74 1009.9
20260902161531 61 117 1.0 4.0 0.00 0.00 0.00 75 1010.0
20260902160030 60 146 1.0 4.0 0.00 0.00 0.00 76 1010.3
20260902143029 55 136 0.0 3.0 0.00 0.00 0.00 89 1011.0
20260902141606 53 180 1.0 4.0 0.00 0.00 0.00 91 1011.1
20260902140106 52 180 0.0 2.0 0.00 0.00 0.00 92 1011.0
20260902134531 52 185 1.0 4.0 0.00 0.00 0.00 92 1011.2
20260902133032 51 188 2.0 4.0 0.00 0.00 0.00 92 1011.3
20260902131609 50 189 3.0 6.0 0.00 0.00 0.00 93 1011.2
20260902130032 50 202 2.0 4.0 0.00 0.00 0.00 92 1011.3
20260902124532 50 165 2.0 5.0 0.00 0.00 0.00 92 1011.3
20260902121647 51 180 3.0 5.0 0.00 0.00 0.00 93 1011.3
20260902120145 50 183 2.0 5.0 0.00 0.00 0.00 92 1011.3
20260902114604 51 180 1.0 3.0 0.00 0.00 0.00 91 1011.4
20260902113030 51 175 0.0 3.0 0.00 0.00 0.00 91 1011.5
20260902111607 52 180 0.0 4.0 0.00 0.00 0.00 90 1011.4
20260902110030 52 202 1.0 4.0 0.00 0.00 0.00 89 1011.5
20260902104606 52 176 1.0 4.0 0.00 0.00 0.00 89 1011.6
20260902103032 53 156 3.0 5.0 0.00 0.00 0.00 88 1011.8
20260902101530 53 167 1.0 4.0 0.00 0.00 0.00 88 1011.7
20260902094530 53 185 1.0 7.0 0.00 0.00 0.00 89 1011.8
20260902093031 53 185 1.0 5.0 0.00 0.00 0.00 89 1012.1
20260902091531 53 179 2.0 4.0 0.00 0.00 0.00 87 1012.1
20260902090030 54 180 1.0 4.0 0.00 0.00 0.00 86 1012.0
20260902084530 54 319 0.0 3.0 0.00 0.00 0.00 85 1012.0
20260902083106 55 207 0.0 5.0 0.00 0.00 0.00 84 1012.0
20260902081530 56 198 0.0 2.0 0.00 0.00 0.00 82 1012.0
20260902080106 56 241 1.0 5.0 0.00 0.00 0.00 81 1012.2